Regional Weather Roundup
Issued by NWS

Home | Current Version | Previous Version | Text Only | Print | Product List | Glossary On
Versions: 1 2 3 4 5 6 7 8 9 10 11 12 13 14 15 16 17 18 19 20 21 22 23 24 25 26 27 28 29 30 31 32 33 34 35 36 37 38 39 40 41 42 43 44 45 46 47 48 49 50
000
ASUS46 KPQR 191510
RWROR

OREGON REGIONAL WEATHER ROUNDUP
NATIONAL WEATHER SERVICE PORTLAND OR
800 AM PDT THU OCT 19 2017

NOTE: "FAIR" INDICATES FEW OR NO CLOUDS BELOW 12,000 FEET WITH
NO SIGNIFICANT WEATHER AND/OR OBSTRUCTIONS TO VISIBILITY.

ORZ001>013-191600-
NORTHWEST OREGON


CITY           SKY/WX    TMP DP  RH WIND       PRES   REMARKS
ASTORIA        CLOUDY    53  51  93 S14       29.58F
NEWPORT        RAIN      52  52 100 SW22G28   29.70S
PORTLAND       LGT RAIN  54  53  97 SE9       29.66F
VANCOUVER WA   LGT RAIN  55  54  96 SE7       29.65F
SCAPPOOSE      LGT RAIN  54  53  97 SE8       29.64F
HILLSBORO      LGT RAIN  54  52  93 S10       29.64F FOG
AURORA         LGT RAIN  54  53  97 S15       29.67F FOG
MCMINNVILLE    LGT RAIN  55  55 100 S10       29.67S
SALEM          LGT RAIN  54  50  86 S13       29.66F
CORVALLIS      LGT RAIN  54  52  93 S7        29.69S
EUGENE         LGT RAIN  53  51  93 CALM      29.69F FOG
$$

ORZ021-028-191600-
SOUTHWEST OREGON


CITY           SKY/WX    TMP DP  RH WIND       PRES   REMARKS
NORTH BEND     RAIN      55  54  94 S5        29.71S FOG
BROOKINGS      CLOUDY    55  50  83 SE10      29.83F
ROSEBURG       CLOUDY    55  42  61 CALM      29.71F
SEXTON SUMMIT  CLOUDY    42  39  89 S17G29    29.78F
GRANTS PASS    FAIR      54  43  66 SE6G12    29.83F
MEDFORD        CLOUDY    42  34  73 CALM      29.81F
$$

ORZ014>016-041-191600-
COLUMBIA GORGE


CITY           SKY/WX    TMP DP  RH WIND       PRES   REMARKS
TROUTDALE      LGT RAIN  55  52  89 S8        29.67F
HOOD RIVER     DRIZZLE   52  50  93 CALM      29.66S
THE DALLES     CLOUDY    57  51  80 NW8       29.63S
$$

ORZ029>031-041-044-049-050-061>064-502-503-505>511-191600-
EASTERN OREGON


CITY           SKY/WX    TMP DP  RH WIND       PRES   REMARKS
MADRAS         CLOUDY    61  52  72 S17G23    29.67F
REDMOND        CLOUDY    55  18  23 S14       29.69F
BEND           CLOUDY    55  19  24 S9G17     29.73S
PRINEVILLE     CLOUDY    55  23  28 S8        29.73S
KLAMATH FALLS  MOCLDY    47  28  47 S9        29.86S
LAKEVIEW       MOCLDY    41  29  62 S10       29.92S
HERMISTON      CLOUDY    48  39  71 S3        29.63R
PENDLETON      CLOUDY    64  27  24 SW12G17   29.63S
JOHN DAY       MOCLDY    56  23  27 SE15G23   29.78R
MEACHAM        MOCLDY    47  30  51 CALM      29.72F
LA GRANDE      MOCLDY    55  29  36 S13G20    29.73S
BAKER CITY     CLOUDY    45  27  49 CALM      29.79S
BURNS          CLOUDY    29  24  82 CALM      29.86S
ROME             N/A     53  11  18 SE13      29.86
ONTARIO        MOCLDY    32  29  88 SW7       29.87R WCI  26
$$



USA.gov is the U.S. government's official web portal to all federal, state and local government web resources and services.